Location: Latina
(41.4670°N, 12.8670°E)
Time: 17:56:33
(UTC+02:00)

ISS - Pass Details

Date: 19 May 2021
Orbit: 417 x 422 km, 51.6° (Epoch: 18 June)

Event Time Altitude Azimuth Distance (km) Brightness Sun altitude
Rises 00:30:18 0° 306° (NW) 2,369 0.7 -28.2°
Reaches altitude 10° 00:33:01 10° 329° (NNW) 1,506 -0.1 -28.3°
Maximum altitude 00:35:12 16° 9° (N) 1,191 -0.7 -28.4°
Enters shadow 00:36:03 15° 27° (NNE) 1,242 -0.8 -28.4°
